Location: Unspecified
(0.0000°N, 0.0000°E)
Time: 18:08:25
(UTC+00:00)

STARLINK 1046 - Pass Details

Date: 15 January 2020
Orbit: 548 x 551 km, 53.0° (Epoch: 17 January)

Event Time Altitude Azimuth Distance (km) Brightness Sun altitude
Rises 20:10:56 0° 296° (WNW) 2,704 7.7 -28.2°
Reaches altitude 10° 20:13:51 10° 274° (W) 1,815 7.0 -28.8°
Maximum altitude 20:16:26 16° 235° (SW) 1,468 6.5 -29.4°
Drops below altitude 10° 20:19:02 10° 196° (SSW) 1,821 6.7 -30.0°
Sets 20:21:59 0° 174° (S) 2,717 7.4 -30.7°
